User: anonymous   Login
Location: Unspecified
(0.0000°N, 0.0000°E)
Time: 22:42:20
(UTC+00:00)
Language:

TRS 6 - Orbit

View from above orbital plane
View from above orbital plane
View from above satellite
View from above satellite

Ground track
Ground track

The orbit data is extracted from the following two-line orbital elements,

1 00608U 63014C   18175.22869251  .00000005  00000-0  11202-2 0  9998
2 00608  87.3244 111.7591 0055920 125.6738 234.9339  8.65283894741640
Epoch (UTC): 24 June 2018 05:29:19
Eccentricity: 0.0055920
inclination: 87.3244°
perigee height: 3588 km
apogee height: 3700 km
right ascension of ascending node: 111.7591°
argument of perigee: 125.6738°
revolutions per day: 8.65283894
mean anomaly at epoch: 234.9339°
orbit number at epoch: 74164

The dashed part of the orbit path shows where the satellite is in the earth's shadow,  

DLR